Location: Churchill Northern Studies Centre
(58.7378°N, 93.8201°W)
Time: 09:58:11
(UTC-05:00)

Envisat - Pass Details

Date: 11 October 2017
Orbit: 764 x 766 km, 98.2° (Epoch: 18 October)

Event Time Altitude Azimuth Distance (km) Brightness Sun altitude
Exits shadow 19:30:43 - 127° (SE) 2,542 5.2 -10.1°
Reaches altitude 10° 19:31:21 10° 124° (SE) 2,305 5.0 -10.1°
Maximum altitude 19:36:00 37° 59° (ENE) 1,177 3.6 -10.7°
Drops below altitude 10° 19:40:39 10° 353° (N) 2,318 5.6 -11.4°
Sets 19:43:06 0° 345° (NNW) 3,248 6.5 -11.7°
